Regional Weather Roundup
Issued by NWS

Home | Current Version | Previous Version | Graphics & Text | Print | Product List | Glossary On
Versions: 1 2 3 4 5 6 7 8 9 10 11 12 13 14 15 16 17 18 19 20 21 22 23 24 25 26 27 28 29 30 31 32 33 34 35 36 37 38 39 40 41 42 43 44 45 46 47 48 49 50
000
ASUS43 KLMK 282210
RWRKY
KENTUCKY REGIONAL WEATHER ROUNDUP
NATIONAL WEATHER SERVICE LOUISVILLE KY
600 PM EDT SUN AUG 28 2016

NOTE "FAIR" INDICATES FEW OR NO CLOUDS BELOW 12,000 FEET
WITH NO SIGNIFICANT WEATHER AND/OR OBSTRUCTIONS TO VISIBILITY.

KYZ001>023-026-027-061>063-070>075-282300-
WESTERN AND SOUTH CENTRAL KENTUCKY

CITY           SKY/WX    TMP DP  RH WIND       PRES   REMARKS
PADUCAH        SUNNY     91  75  59 SE5       30.05F HX 101
HENDERSON      MOSUNNY   90  75  62 N6        30.07S HX 100
OWENSBORO      MOSUNNY   92  75  57 N7        30.09S HX 102
HOPKINSVILLE   MOSUNNY   89  74  62 N8        30.07F HX  97
BOWLING GREEN  MOSUNNY   93  72  50 VRB5      30.09F THUNDER HX 101
GLASGOW        PTSUNNY   83  69  63 CALM      30.11S
$$

KYZ024-025-028>034-038-045-046-053-282300-
NORTH CENTRAL KENTUCKY

CITY           SKY/WX    TMP DP  RH WIND       PRES   REMARKS
LOUISVILLE/SDF PTSUNNY   84  66  54 E21G28    30.12R THUNDER
LOUISVILLE/LOU TSTM      80  67  64 E12G38    30.12R
FORT KNOX      SUNNY     91  73  55 N5        30.10S HX  99
$$

KYZ035>037-039>044-047>052-055>060-089>105-282300-
NORTHEAST KENTUCKY

CITY           SKY/WX    TMP DP  RH WIND       PRES   REMARKS
LEXINGTON      CLOUDY    75  67  76 E9        30.17R
COVINGTON      CLOUDY    91  73  55 N8        30.13F HX  99
FRANKFORT      LGT RAIN  74  70  87 CALM      30.14S
$$

KYZ054-064>069-076>088-106>120-282300-
SOUTHEAST KENTUCKY

CITY           SKY/WX    TMP DP  RH WIND       PRES   REMARKS
JACKSON        LGT RAIN  75  70  84 NW5       30.16S
LONDON         CLOUDY    76  66  71 CALM      30.16R
SOMERSET       NOT AVBL
MIDDLESBORO    CLOUDY    78  67  68 W5        30.16F
MONTICELLO     CLOUDY   N/A N/A N/A E12G17    30.13S
$$





USA.gov is the U.S. government's official web portal to all federal, state and local government web resources and services.